GSAT 0208 (PRN E08)

Last updated on Sun May 29 2016 01:47:02 GMT+0000 (Coordinated Universal Time)

1 41175U 15079B 16149.78967240 .00000049 00000-0 00000+0 0 9996 2 41175 54.9471 202.3720 0004779 269.3113 65.8967 1.70474131 2762
UTC large
Height (km)
Speed (km/s)
/
Latitude / Longitude
Inclination (degrees)
Orbital Period (minutes)
Azimuth
Elevation
Range (km)
Doppler Factor

Next 0 passes for location: London (51.5072 / 0.1276)

Sorry there are no passes over London.